Weather Roundup
Issued by NWS Chicago, IL

Home | Current Version | Previous Version | Text Only | Print | Product List | Glossary Off
Versions: 1 2 3 4 5 6 7 8 9 10 11 12 13 14 15 16 17 18 19 20 21 22 23 24 25 26 27 28 29 30 31 32 33 34 35 36 37 38 39 40 41 42 43 44 45 46 47 48 49 50

000
NZUS59 KLOT 042308
HRRLOT

CHICAGO AREA WEATHER ROUNDUP
NATIONAL WEATHER SERVICE CHICAGO/ROMEOVILLE IL
600 PM CDT MON MAY 04 2015

NOTE: "FAIR" INDICATES FEW OR NO CLOUDS BELOW 12,000 FEET WITH NO
SIGNIFICANT WEATHER AND/OR OBSTRUCTIONS TO VISIBILITY.

* THESE STATIONS ARE NOT UNDER NWS QUALITY CONTROL. THEY ALSO MAY NOT
  REPORT WEATHER SUCH AS PRECIPITATION OR FOG.

ILZ005-006-012>014-019>023-050000-
NORTHEAST ILLINOIS

CITY           SKY/WX    TMP DP  RH WIND       PRES   REMARKS
OHARE          PTSUNNY   64  51  62 NE12      30.14R
MIDWAY         PTSUNNY   65  55  70 NE12      30.14R
AURORA         MOSUNNY   73  55  53 NE7       30.11F
LANSING*       PTSUNNY   64  54  71 NE9       30.14R
JOLIET*        PTSUNNY   75  61  62 SE5       30.11S
WAUKEGAN       MOSUNNY   58  38  47 NE8       30.16R
DUPAGE AIRPORT PTSUNNY   68  57  68 E15       30.12R
WHEELING       MOSUNNY   62  47  57 NE9       30.17R
KANKAKEE*      CLOUDY    71  64  80 SE5       30.12F
MORRIS*        MOSUNNY   75  58  55 E7        30.09S
LEWIS AIRPORT* PTSUNNY   69  57  65 E13       30.12R
NORTHERLY IS     N/A     54  51  90 N6          N/A
$$

WIZ051-052-058>065-066-070>072-050000-
SOUTHEAST WISCONSIN

CITY           SKY/WX    TMP DP  RH WIND       PRES   REMARKS
MILWAUKEE      PTSUNNY   56  39  53 NE9       30.16F
KENOSHA*       PTSUNNY   61  39  44 E12       30.16S
RACINE*        MOSUNNY   55  39  54 NE10      30.18S
BURLINGTON     MOSUNNY   63  36  36 E10G16    30.16R
WAUKESHA       MOSUNNY   63  34  34 E12       30.17R
WEST BEND      MOSUNNY   63  36  36 E6        30.17S
$$

INZ001>003-010>013-019-020-050000-
NORTHWEST INDIANA

CITY           SKY/WX    TMP DP  RH WIND       PRES   REMARKS
GARY*          CLOUDY    61 N/A N/A E12       30.15S
MICHIGAN CITY* NOT AVBL
RENSSELAER*    NOT AVBL
VALPARAISO     PTSUNNY   68  58  70 N6        30.14R
$$

LMZ740>746-050000-
SOUTHERN LAKE MICHIGAN

STATION/POSITION TIME  SKY/WX   TEMP WIND        PRES    VSBY
                                AIR  DIR/SP/G
                 (UTC)          (F)  (DEG/KT/KT) (MB)    (MI)
HARRISON CRIB    2200            52   40/ 13/ 14   N/A
BURNHAM HARBOR   2300            54   30/  4/  8   N/A
CALUMET HARBOR   2206            54   80/  5/  7   N/A
BURNS HARBOR     2200            55   70/ 11/ 14 1021.0S
MICHIGAN CITY    2215            53   30/ 13/ 14   N/A
$$

ABBREVIATIONS USED IN REMARKS
   TC - TEMPERATURE IN CELSIUS
  WCI - WIND CHILL INDEX
   HX - HEAT INDEX
  VSB - VISIBILITY
$$



USA.gov is the U.S. government's official web portal to all federal, state and local government web resources and services.